Simultaneous Nadir Overpasses (SNOs) Predictions

Prediction of SNOs between AQUA and GOES-15 Satellite Orbit:

Table of predicted SNOs for the next 14.0 days since TLE Epoch: 12/9/2023
Index Date Time (AQUA) AQUA Lat,Lon GOES-15 Lat,Lon Distance(km) Time Diff (sec)
1 12/10/2023 21:45:46 -0.44, 63.06 -0.03, 61.17 215.30 80
2 12/11/2023 10:06:24 -0.62, 58.07 0.04, 61.26 362.56 80
3 12/13/2023 09:51:13 0.13, 61.78 0.03, 61.27 57.63 80
4 12/13/2023 22:11:43 0.88, 56.81 -0.05, 61.18 497.34 80
5 12/15/2023 09:36:02 0.90, 65.49 0.03, 61.29 477.28 80
6 12/15/2023 21:56:32 0.11, 60.52 -0.04, 61.21 78.16 80
7 12/17/2023 21:41:21 -0.70, 64.23 -0.04, 61.24 340.89 80
8 12/18/2023 10:01:57 -0.39, 59.24 0.05, 61.34 238.26 80
9 12/20/2023 09:46:46 0.39, 62.96 0.05, 61.36 181.30 80
10 12/20/2023 22:07:14 0.67, 58.00 -0.06, 61.27 372.64 80
11 12/22/2023 21:52:02 -0.14, 61.71 -0.05, 61.30 46.58 80
